Dewpoint
31 27 23 19 21 19 21 19 16 22 26 29 26 24 27 43 46 43 42 44 46 48 48 51 49 50 50 51 53 54 56 57 60 56 52 47 50 54 57 58 58 57 55 54
30 25 25 28 28 25 25 20 18 23 25 25 20 19 23 38 42 43 40 42 42 45 48 50 52 50 50 50 52 53 54 55 58 56 52 49 48 52 53 56 58 57 56 54
23 24 29 28 27 25 26 21 21 20 24 23 21 18 22 31 39 43 43 41 42 43 47 49 50 52 53 51 53 52 52 54 57 57 55 52 51 54 54 55 56 54 54 53
24 26 27 27 25 26 22 25 24 24 21 16 22 13 16 24 32 39 43 44 44 44 45 48 50 52 52 53 52 53 53 54 57 58 55 52 48 50 53 55 55 54 54 53
22 27 28 25 24 27 22 25 25 25 21 20 19 16 16 25 22 30 36 40 43 43 44 45 49 52 53 53 54 53 53 54 56 57 57 54 50 49 53 56 55 54 53 52
23 29 28 24 28 28 28 27 26 26 23 20 16 17 14 15 18 19 25 35 40 44 45 45 46 50 52 54 54 56 54 54 55 57 58 57 55 52 52 55 55 54 52 51
23 23 25 30 26 30 28 24 19 20 20 19 24 20 16 20 23 26 26 27 32 41 45 46 46 49 52 54 56 57 56 54 55 56 57 57 57 57 55 54 54 54 52 49
18 17 24 26 23 23 25 23 20 18 18 17 25 18 17 24 26 29 34 35 35 34 40 45 47 48 51 54 57 57 56 55 55 57 57 58 58 58 57 56 55 54 51 49
16 15 24 28 28 25 26 24 25 24 29 23 18 20 19 23 25 26 32 34 34 34 36 42 44 47 51 54 56 57 57 55 55 57 58 58 58 58 57 56 55 52 50 49
22 16 27 30 31 31 27 27 24 24 20 17 17 17 12 16 18 22 22 29 36 40 39 40 42 45 49 53 55 57 57 56 56 57 58 58 57 57 57 57 53 52 51 50
21 20 27 30 28 24 28 25 26 24 23 18 15 15 19 17 20 24 27 29 32 39 43 44 45 47 49 51 54 56 56 56 56 57 57 58 57 57 57 56 55 54 53 51
23 21 18 21 27 28 23 22 25 20 18 21 21 18 19 21 24 26 26 30 35 38 42 46 49 50 50 52 52 53 54 54 55 56 57 57 57 57 56 56 56 55 51 48
26 21 17 18 23 27 23 24 23 24 26 19 22 19 24 25 25 25 25 29 35 39 41 46 49 51 52 53 53 54 55 55 55 56 56 56 55 55 54 53 51 49 48 45
27 19 18 16 15 17 21 22 22 22 21 19 22 19 21 22 22 23 26 26 27 32 42 45 49 50 52 54 55 55 56 57 56 54 53 52 52 51 50 49 47 45 44 42
26 19 20 17 16 15 15 15 20 21 22 19 21 20 22 23 24 23 27 29 32 34 42 45 47 50 52 54 55 55 56 55 54 52 50 49 48 47 46 46 45 43 40 39
29 20 22 20 20 19 16 16 16 20 18 21 22 20 23 25 27 27 27 31 35 39 42 44 45 46 46 48 50 51 51 50 50 49 47 45 44 43 42 40 39 39 38 38
30 24 23 18 23 22 23 24 21 21 25 25 20 22 22 25 26 27 30 33 37 39 40 41 41 42 44 46 48 47 47 47 46 44 42 41 39 38 38 37 37 37 39 41
32 29 28 21 25 22 19 26 23 22 23 24 24 23 24 24 27 30 32 35 35 36 38 39 40 41 42 44 44 44 44 43 42 41 39 38 37 37 37 37 39 40 40 40
35 31 29 27 23 20 23 24 25 24 22 23 23 22 22 28 31 32 34 35 35 37 38 38 39 39 40 40 41 40 40 39 38 37 37 36 37 37 38 38 39 40 40 39
35 34 31 28 23 22 21 23 26 25 21 22 22 23 24 30 27 26 35 35 36 36 37 37 38 38 38 38 39 38 38 37 37 37 36 37 38 38 38 39 39 37 36 32
31 32 30 29 27 25 27 26 26 20 21 24 23 26 28 29 28 34 35 35 35 35 36 36 36 37 37 38 38 37 37 36 36 37 38 38 38 36 35 34 32 30 29 29
30 30 30 30 30 25 28 25 23 25 33 29 31 30 31 33 36 35 34 34 33 34 35 35 36 36 36 36 36 36 36 37 37 35 33 31 31 28 28 27 26 25 25 26
28 31 30 29 28 32 30 27 28 33 29 31 31 32 33 36 35 34 34 33 33 33 34 34 35 35 35 35 35 34 34 34 32 30 28 27 26 26 26 26 27 25 26 27
32 35 33 32 28 31 33 30 32 31 31 31 32 34 36 34 34 34 33 33 33 33 33 33 33 33 32 31 30 29 28 27 26 26 27 27 26 25 24 22 19 16 18 18
30 34 32 32 32 34 35 35 32 34 35 35 33 35 35 35 34 33 33 32 32 32 32 32 31 31 29 29 28 27 27 26 25 25 23 22 20 13 10 9 13 14 17 19
34 33 32 31 32 33 31 34 36 36 35 35 34 35 35 34 33 33 32 32 31 31 31 30 30 28 26 26 25 25 24 23 21 17 14 15 15 14 11 9 10 19 18 18
Wind_Speed
10 11 12 3 5 8 8 7 8 6 4 5 7 7 6 13 14 15 14 15 16 17 18 21 22 23 25 24 24 26 23 19 17 16 16 15 16 15 14 11 11 12 12 13
8 14 3 3 4 8 7 9 8 3 4 6 4 9 3 14 17 16 17 16 16 16 18 22 23 24 25 26 26 26 25 21 20 17 15 14 15 15 14 12 12 12 13 14
15 2 5 7 8 10 10 11 4 3 2 5 7 13 8 9 13 14 15 14 15 18 20 22 24 26 26 28 27 27 26 22 20 18 15 13 13 11 15 13 12 12 11 13
12 7 9 9 10 9 12 11 6 5 8 11 3 8 6 8 14 17 18 19 20 21 20 22 24 26 26 27 25 26 25 24 22 21 20 20 19 18 17 16 14 14 15 15
11 10 12 13 11 9 5 4 8 6 10 8 9 9 5 3 9 17 24 24 23 22 24 26 26 26 27 26 26 25 25 24 23 22 21 19 20 16 14 14 15 16 15 14
10 2 6 4 3 11 4 6 6 6 8 14 13 11 7 8 7 7 9 22 25 24 24 24 25 23 24 25 25 25 26 26 24 23 23 23 22 21 17 17 17 15 13 14
16 15 7 6 7 8 11 11 11 10 10 13 5 8 14 3 4 8 10 8 14 25 26 26 25 27 25 26 25 24 25 26 25 25 24 25 24 21 20 19 19 17 16 15
20 17 17 13 15 9 15 15 10 8 8 7 4 7 3 2 5 7 8 8 10 15 25 28 26 25 25 25 24 24 25 24 25 25 26 23 21 17 20 21 18 18 17 17
21 18 6 8 7 12 9 12 5 5 0 4 6 6 11 2 3 4 3 4 4 8 15 20 23 26 24 22 24 25 23 22 23 20 20 19 17 20 20 19 14 15 15 14
8 13 6 7 8 3 6 11 8 8 7 9 6 7 5 2 3 2 3 3 2 2 5 9 11 15 18 19 18 19 19 21 21 19 19 19 18 19 20 17 19 17 16 17
13 11 7 8 13 16 8 9 4 3 3 6 6 5 3 3 2 2 1 2 3 1 4 6 8 8 10 12 14 16 16 18 18 18 16 16 15 16 16 16 17 17 17 18
23 11 14 15 3 4 8 12 15 12 8 6 10 17 7 10 6 5 4 5 4 2 1 5 7 9 10 11 11 12 13 14 13 12 12 11 10 9 11 12 11 9 10 12
20 14 16 14 8 6 11 13 14 9 4 15 10 6 5 5 7 8 7 6 5 4 3 4 7 8 9 10 9 9 9 8 8 7 6 6 5 5 4 5 7 8 10 11
25 18 22 22 18 15 14 16 18 19 13 15 16 13 12 14 12 9 8 8 7 6 7 6 6 6 7 7 8 8 6 5 6 5 4 6 6 6 7 7 7 9 9 10
15 22 22 23 20 19 20 17 17 20 21 17 16 19 16 15 13 8 5 5 6 8 8 8 8 7 7 7 8 7 8 7 7 7 8 8 8 7 7 7 8 8 12 13
8 15 14 16 16 18 20 21 22 23 21 18 20 23 14 16 8 9 6 8 9 9 9 9 8 8 9 8 9 10 11 10 10 11 10 11 11 11 11 12 13 14 15 15
7 12 11 19 11 10 11 21 20 20 17 19 21 21 17 13 15 12 8 11 14 15 15 14 13 12 13 13 12 13 13 13 13 14 13 13 13 14 14 15 15 16 15 11
6 11 9 10 6 13 11 4 21 23 19 18 20 21 18 15 6 7 9 14 16 16 15 13 12 13 13 14 16 16 15 16 15 15 15 14 15 16 16 15 14 11 8 5
19 11 6 8 14 12 4 7 10 15 20 17 23 23 14 7 11 7 8 14 15 14 13 13 13 14 14 15 16 18 17 17 16 15 15 14 14 15 14 12 9 5 3 1
10 12 14 5 10 12 12 13 12 5 26 12 15 18 14 17 15 13 17 16 15 14 14 15 15 15 16 15 16 18 18 18 17 16 16 15 13 11 10 7 5 2 2 2
7 6 20 20 10 9 5 12 13 12 24 5 8 11 15 21 11 21 22 16 15 15 16 15 15 15 16 16 17 20 19 19 17 16 15 13 11 10 7 5 3 2 2 3
12 13 9 14 11 18 14 13 15 19 4 8 10 11 18 13 15 23 22 20 18 18 17 16 17 17 16 16 18 19 19 16 15 14 14 12 9 7 5 4 3 3 4 5
14 9 5 12 10 5 28 20 23 8 9 8 12 12 17 17 20 22 22 21 19 19 18 18 19 19 16 15 15 18 15 14 14 13 12 10 8 7 5 4 5 4 5 6
10 7 8 5 13 16 15 21 8 12 11 7 9 17 23 24 25 23 22 21 21 20 20 20 21 20 18 15 15 15 14 13 13 12 11 9 8 5 5 4 4 5 6 7
17 12 13 16 18 9 14 19 19 12 8 9 11 19 25 26 26 24 23 22 21 21 20 20 20 19 18 16 15 13 12 12 12 10 9 7 6 5 4 5 5 5 7 7
12 12 17 16 20 14 21 10 17 17 16 12 17 20 22 25 28 24 24 23 23 23 21 20 19 19 18 17 15 13 10 9 10 9 8 6 5 5 4 4 2 10 5 3
Wind_Direction
204 229 229 263 251 285 274 245 240 126 117 255 240 274 204 186 195 193 196 187 186 187 178 178 182 180 183 183 187 189 194 198 191 192 194 197 198 198 201 201 197 186 185 182
198 229 279 200 197 223 229 229 207 189 177 305 282 277 253 191 207 201 200 201 198 189 184 186 190 193 195 197 198 199 202 204 203 199 200 204 204 205 208 205 202 200 194 189
227 124 142 196 184 205 218 254 174 261 179 245 278 260 201 203 211 211 217 213 208 202 195 197 197 199 200 204 203 205 206 208 206 207 200 200 203 207 209 206 206 194 195 199
235 222 218 217 219 217 208 217 250 220 242 248 225 273 172 186 201 214 217 216 217 209 208 202 203 206 205 206 204 207 206 207 204 206 206 204 202 208 211 212 210 198 201 205
205 190 196 213 217 201 232 189 232 263 267 271 217 255 170 175 220 216 217 216 219 218 209 209 205 205 206 204 206 206 206 205 205 204 215 209 219 221 214 214 213 204 201 201
213 184 214 224 190 212 142 184 223 254 262 247 237 243 226 207 236 246 224 217 220 217 219 217 212 206 208 204 203 204 206 206 206 207 211 216 217 221 217 209 209 202 198 197
202 218 213 206 202 171 198 215 230 220 220 239 163 228 260 248 246 271 277 260 226 220 217 220 213 207 207 205 202 203 205 209 208 209 214 218 222 221 216 216 216 204 201 191
207 210 211 202 225 216 206 219 221 229 220 215 171 235 204 91 274 272 271 273 259 239 219 220 215 215 210 208 204 206 206 207 205 208 215 217 218 218 222 222 217 209 199 193
208 221 161 205 203 204 179 213 237 246 247 258 230 237 257 172 246 287 284 277 273 236 219 219 225 216 213 211 208 210 211 209 210 208 217 220 212 216 221 225 209 191 192 189
203 204 201 154 177 167 240 148 187 213 235 237 193 243 261 170 147 32 31 17 80 171 202 214 221 220 219 212 208 205 207 209 212 211 212 218 219 221 225 216 208 196 194 194
200 228 158 177 206 186 176 193 219 269 253 255 255 244 179 222 196 228 291 306 337 57 144 175 183 191 198 201 201 197 201 205 206 208 213 217 223 222 225 216 220 216 206 203
207 224 218 210 137 287 246 221 212 234 218 235 261 257 199 262 248 235 261 248 260 283 134 139 148 153 162 178 187 191 200 206 207 205 208 213 225 228 229 227 227 205 189 196
178 213 216 211 206 201 221 210 220 234 257 242 238 256 164 187 218 225 233 215 232 243 196 147 141 147 150 158 169 178 187 193 196 194 194 199 195 180 183 161 143 157 173 174
182 209 217 225 224 215 214 223 221 226 236 253 234 262 236 247 248 251 218 208 219 229 203 187 165 154 147 150 158 160 152 144 142 146 141 131 139 148 150 146 150 153 153 151
196 224 228 241 249 244 238 236 220 221 231 245 254 253 257 268 254 248 172 190 192 188 189 186 180 158 136 130 124 119 98 108 114 111 111 114 116 123 135 142 129 130 133 130
197 221 214 232 239 233 238 241 245 231 246 254 260 266 262 262 237 236 204 183 172 153 149 139 130 119 103 102 99 97 95 94 101 105 103 107 111 107 108 111 115 115 115 117
198 215 212 238 225 233 248 239 233 230 224 228 256 268 270 254 240 234 197 169 154 139 129 119 109 100 95 93 100 98 96 96 96 98 99 102 106 108 110 114 118 113 109 107
201 206 203 231 160 231 241 217 224 232 237 241 258 266 264 271 245 191 176 157 145 136 127 118 110 103 97 99 100 103 100 97 99 100 104 111 115 114 115 112 113 111 110 107
219 197 191 191 216 254 191 191 187 203 248 243 257 269 255 201 153 161 161 150 140 131 122 117 115 111 108 105 105 103 101 101 100 102 106 110 117 120 123 124 121 106 72 289
192 226 223 178 223 233 238 199 196 210 270 267 257 261 217 179 213 203 165 148 137 131 129 127 123 117 113 112 114 110 105 103 102 106 109 113 115 115 111 91 84 88 213 317
165 188 207 216 235 242 206 162 158 209 257 185 226 242 198 201 233 142 148 145 140 134 130 127 122 116 115 119 117 108 107 104 107 106 103 96 88 89 99 120 108 47 11 329
190 177 186 212 220 240 153 144 203 231 212 205 206 210 201 185 136 144 147 147 144 137 134 131 125 119 118 119 116 112 109 112 110 107 102 101 102 98 85 73 53 20 359 333
238 217 226 207 221 203 183 211 217 218 224 200 203 184 182 160 158 155 151 148 146 142 141 138 130 122 117 117 119 116 117 120 118 112 108 105 99 90 69 48 25 3 347 338
225 193 212 246 251 236 215 230 229 213 211 193 201 179 169 165 161 159 154 151 151 150 147 139 134 127 121 116 114 116 118 120 119 117 114 108 88 88 65 60 29 12 1 347
227 171 219 244 257 278 256 234 225 209 205 192 189 180 177 163 164 161 158 158 156 151 147 145 136 130 124 118 111 112 119 125 120 112 101 93 80 58 60 58 37 38 54 16
197 206 210 234 247 237 261 251 206 209 212 197 178 173 174 168 162 163 162 160 156 153 147 142 137 130 124 118 114 111 111 117 120 112 99 74 80 70 46 36 102 117 100 48